sat.trackr.live / text

‹ back to catalog

SKYSAT-C1

NORAD 41601 · 2016-040C

PAYLOAD ACTIVE UNKNOWN

§ Identity

Operator
Country
US
Launch date
2016-06-22
Launch site
SRILR
Launch vehicle
Mass (kg)
RCS (m²)
0.38

Purposes: earth_obs

External: N2YO · Heavens-Above · Gunter

§ Orbital elements

Epoch: 2026-09-19T00:45:03.946752Z

Period
93.65 min
Inclination
96.9520°
Eccentricity
0.0003918
Mean motion
15.37663665 rev/d
Perigee alt
450.3 km
Apogee alt
455.7 km
Semi-major
6,831.2 km
B*
1.7061e-4
RAAN
288.7244°
Arg perigee
66.4506°
Mean anomaly
293.7151°
Rev number
57,228

§ Raw data

SKYSAT-C11 41601U 16040C   26262.03129568  .00006234  00000+0  17061-3 0  99972 41601  96.9520 288.7244 0003918  66.4506 293.7151 15.37663665572288

JSON: /api/v1/satellites/41601 · /tle

For live sub-satellite position, see the globe view (requires WebGL).

§ Visibility from observer

Set your observer location to see the next 7 days of passes ≥ 10°. The values pass through the URL so the page stays shareable.

No JS? Fill the form by hand. The geolocation button needs JavaScript.